Regional Weather Roundup
Issued by NWS Charleston, WV

Home | Current Version | Previous Version | Graphics & Text | Print | Product List | Glossary Off
Versions: 1 2 3 4 5 6 7 8 9 10 11 12 13 14 15 16 17 18 19 20 21 22 23 24 25 26 27 28 29 30 31 32 33 34 35 36 37 38 39 40 41 42 43 44 45 46 47 48 49 50

000
ASUS41 KRLX 050610
RWRRLX
West Virginia Regional Weather Roundup
National Weather Service Charleston WV
100 AM EST THU MAR 05 2015

Note: "fair" indicates few or no clouds below 12,000 feet with no
significant weather and/or obstructions to visibility.

WVZ003-050700-
Northern Panhandle of West Virginia

CITY           SKY/WX    TMP DP  RH WIND       PRES   REMARKS
WHEELING       LGT SNOW  26  24  92 W9        30.10R VSB 3/4
$$

WVZ009-050700-
Northwest West Virginia

CITY           SKY/WX    TMP DP  RH WIND       PRES   REMARKS
PARKERSBURG    LGT SNOW  28  26  92 NW12      30.16R VSB 3/4
$$

WVZ006-050700-
Western West Virginia

CITY           SKY/WX    TMP DP  RH WIND       PRES   REMARKS
HUNTINGTON     LGT SNOW  29  29 100 N12       30.13S VSB 3/4
$$

WVZ015-050700-
West Central West Virginia

CITY           SKY/WX    TMP DP  RH WIND       PRES   REMARKS
CHARLESTON     LGTSLEET  32  30  92 NW7       30.10R FOG
$$

WVZ022-031-050700-
North Central West Virginia

CITY           SKY/WX    TMP DP  RH WIND       PRES   REMARKS
CLARKSBURG     LGT SNOW  31  30  96 NW12      30.05F FOG
MORGANTOWN     SNOW      30  26  85 NW7       30.07R VSB 1/2
$$

WVZ025-035-042-045-050700-
Southern West Virginia

CITY           SKY/WX    TMP DP  RH WIND       PRES   REMARKS
BECKLEY        LGT RAIN  32  32 100 N9        29.98F
LOGAN          LGT RAIN  32  32 100 NW6       30.02R
BLUEFIELD      LGT RAIN  38  35  89 N5        29.96F FOG
LEWISBURG      DRIZZLE   37  37  97 SW3       29.96S
$$

WVZ047-050700-
Northern Mountains of West Virginia

CITY           SKY/WX    TMP DP  RH WIND       PRES   REMARKS
ELKINS         LGT SNOW  31  32 100 N5        30.00F
$$

WVZ052-050700-
Eastern Panhandle of West Virginia

CITY           SKY/WX    TMP DP  RH WIND       PRES   REMARKS
MARTINSBURG    LGT RAIN  39  33  79 NW5       30.00R
PETERSBURG     RAIN      39  37  92 CALM      30.00R
$$



USA.gov is the U.S. government's official web portal to all federal, state and local government web resources and services.